CZ-2D DEB, 44607

Orbit data source: Space-Track

CZ-2D DEB, 44607 is space debris in SSO originally from a launch on Fri, 11 Nov 2016 UTC launched from the Jiuquan Satellite Launch Center, China (JSC). Debris objects in space refer to the collection of defunct objects orbiting the Earth. Examples of debris include non-operational satellites, rocket bodies, and fragments generated from explosions, collisions, or faulty payload assembly.

Loading next visibility...
Identifier
44607, 2016-068G
Orbit
SSO
Country
Flag of CNCN / PRC
Related business
Manufacturer
Unknown
Mission
Spacecraft
Bus & Motor
Unknown
Mass
Unknown
Launch date (UTC)
2016-11-11 (10 years ago)
Launch vehicle
Unknown
Launch site
Jiuquan Satellite Launch Center, China (JSC)
Object type
Payload
Rocket body
Debris
Shape & HBR
Unknown shape, 0.1 m
Radar Cross Section
Small (<0.1 m²)

Expand to show TLE details & history
Last TLE update: 7 hours ago

TLE from 7 hours ago
0 CZ-2D DEB
1 44607U 16068G   26257.58817584  .00000230  00000-0  16394-3 0  9991
2 44607  98.5302  24.7351 0202197 280.8722  76.9748 13.96951467493314
Epoch: 2026-09-14T14:06Z
TLE epoch observation values (Epoch: 2026-09-14T14:06:58.392Z)
Latitude
-0.00008°
Longitude
179.42549°
Altitude
876.913 km
Speed
7.429 km/s
True Right ascension
01h 38m 56s
True Declination
0° 00' 00"
Sunlit
Object was in full shadow at epoch
Visualization orbit readout
Latitude
Unknown
Longitude
Unknown
Altitude
Unknown
Speed
Unknown
Apparent Right ascension
Unknown
Apparent Declination
Unknown
Sunlit
N/A
Visualization observer readout
Local Sidereal Time
13:37:19
Azimuth
Unknown
Elevation
Unknown
Doppler factor
Unknown
Orbital elements
Apogee altitude
1,048.743 km
Perigee altitude
754.357 km
Semi-major axis
7,279.687 km
Eccentricity
0.02022
Inclination
98.5302°
RAAN
24.7351°
Arg. of periapsis
280.8722°
True anomaly
79.24453°
Mean anomaly
76.9748°
Eccentric anomaly
78.10844°
Mean motion
3.49441 °/min
Orbital period
103.02 mins
BSTAR
0.00016394
Loading maneuver chart data...
Computing Atmospheric mass density...
Loading historical data...
Loading historical data...
Loading historical data...
Loading historical data...
Loading historical data...
Loading historical data...
Loading historical data...

Documentation

Showing up to 5 results
|